Flight Track Log - Related Links

Times and Time Zones

All times are in EDT time to prevent confusion due to time zone crossing. See the XOJ552 flight status page for this flight to view local times or setup timezone preferences in your user account.

Time Position Orientation Groundspeed Altitude Reporting Facility
EDT Latitude Longitude Course Direction KTS MPH feet Rate Location/Type
08:08PM 32.7428 -117.2125 304° West 188 216 1,800  Level Los Angeles Center
08:09PM 32.7756 -117.2708 304° West 213 245 6,600 4,742 Climbing Los Angeles Center
08:10PM 32.8242 -117.3458 308° West 258 297 11,600 3,919 Climbing Los Angeles Center
08:11PM 32.8769 -117.4317 306° West 311 358 14,700 1,645 Climbing Los Angeles Center
08:12PM 32.9472 -117.5111 317° Northwest 359 413 15,000 726 Climbing Los Angeles Center
08:13PM 33.0314 -117.6006 318° Northwest 345 397 16,200 2,160 Climbing Los Angeles Center
08:14PM 33.0900 -117.6964 306° West 357 411 19,500 3,072 Climbing Los Angeles Center
08:15PM 33.1597 -117.7908 311° West 374 430 22,600 1,694 Climbing Los Angeles Center
08:16PM 33.2325 -117.8861 312° West 387 445 23,000 1,016 Climbing Los Angeles Center
08:17PM 33.3064 -117.9831 312° West 394 453 24,700 2,613 Climbing Los Angeles Center
08:18PM 33.3992 -118.1044 312° West 410 472 28,400 3,000 Climbing Los Angeles Center
08:19PM 33.4783 -118.2064 313° West 417 480 30,900 2,323 Climbing Los Angeles Center
08:20PM 33.5658 -118.3028 317° Northwest 425 489 33,200 1,984 Climbing Los Angeles Center
08:21PM 33.6731 -118.3556 338° Northwest 440 506 35,000 1,839 Climbing Los Angeles Center
08:22PM 33.7906 -118.4075 340° North 447 514 37,000 1,790 Climbing Los Angeles Center
08:23PM 33.9214 -118.4656 340° North 443 510 38,700 1,306 Climbing Los Angeles Center
08:25PM 34.0417 -118.5192 340° North 456 525 39,700 624 Climbing Los Angeles Center
08:26PM 34.1631 -118.5731 340° North 464 534 40,000 145 Climbing Los Angeles Center
08:27PM 34.2844 -118.6272 340° North 468 539 40,000  Level Los Angeles Center
08:28PM 34.4289 -118.6925 340° North 463 533 40,000  Level Los Angeles Center
08:29PM 34.5503 -118.7461 340° North 465 535 40,000  Level Los Angeles Center
08:30PM 34.6700 -118.8003 340° North 464 534 40,000  Level Los Angeles Center
08:31PM 34.7908 -118.8586 338° Northwest 470 541 40,000  Level Los Angeles Center
08:32PM 34.8972 -118.9528 324° Northwest 451 519 40,000  Level Los Angeles Center
08:33PM 34.9953 -119.0461 322° Northwest 447 514 40,000  Level Los Angeles Center
08:34PM 35.0931 -119.1433 321° Northwest 454 522 40,000  Level Los Angeles Center
08:35PM 35.2108 -119.2569 322° Northwest 454 522 40,000  Level Los Angeles Center
08:36PM 35.3067 -119.3511 321° Northwest 446 513 40,000  Level Los Angeles Center
08:37PM 35.4047 -119.4461 322° Northwest 449 517 40,000  Level Los Angeles Center
08:38PM 35.5172 -119.5606 320° Northwest 450 518 40,000 -47 Level Oakland Center
08:39PM 35.6144 -119.6578 321° Northwest 453 521 39,900  Descending Oakland Center
08:40PM 35.7111 -119.7544 321° Northwest 453 521 40,000  Climbing Oakland Center
08:41PM 35.8094 -119.8531 321° Northwest 457 526 39,900 -541 Descending Oakland Center
08:42PM 35.9086 -119.9531 321° Northwest 463 533 38,900 -1,377 Descending Oakland Center
08:43PM 36.0056 -120.0503 321° Northwest 458 527 37,100 -1,902 Descending Oakland Center
08:44PM 36.1044 -120.1478 321° Northwest 459 528 35,000 -1,512 Descending Oakland Center
08:45PM 36.2019 -120.2478 320° Northwest 459 528 34,000 -1,033 Descending Oakland Center
08:46PM 36.3206 -120.3700 320° Northwest 463 533 32,900 -1,770 Descending Oakland Center
08:47PM 36.4211 -120.4739 320° Northwest 472 543 30,400 -2,508 Descending Oakland Center
08:48PM 36.5231 -120.5825 319° Northwest 482 555 27,800 -2,459 Descending Oakland Center
08:49PM 36.6206 -120.6797 321° Northwest 455 524 25,400 -2,293 Descending Oakland Center
08:50PM 36.7133 -120.7747 321° Northwest 433 498 23,100 -2,244 Descending Oakland Center
08:51PM 36.8317 -120.8197 343° North 427 491 20,800 -2,213 Descending Oakland Center
08:52PM 36.9444 -120.8569 345° North 417 480 18,600 -2,164 Descending Oakland Center
08:53PM 37.0550 -120.8956 344° North 412 474 16,400 -2,115 Descending Oakland Center
08:54PM 37.1583 -120.9322 344° North 388 447 14,300 -2,066 Descending Oakland Center
08:55PM 37.2636 -120.9708 344° North 391 450 12,200 -2,066 Descending Oakland Center
08:56PM 37.3439 -121.0564 320° Northwest 383 441 10,100 -1,347 Descending Oakland Center
08:57PM 37.4000 -121.1167 320° Northwest 376 433 10,000 -66 Descending Northern Cal TRACON
08:58PM 37.4667 -121.2167 310° West 374 430 10,000 -300 Level Northern Cal TRACON
08:59PM 37.5500 -121.3000 322° Northwest 333 383 9,400 -905 Descending Northern Cal TRACON
09:00PM 37.6167 -121.3833 315° West 322 371 8,100 -700 Descending Northern Cal TRACON
09:01PM 37.6667 -121.4500 313° West 305 351 8,000  Descending Northern Cal TRACON
09:02PM 37.7167 -121.5333 307° West 299 344 8,100  Climbing Northern Cal TRACON
09:03PM 37.7667 -121.6167 307° West 301 346 8,000 -200 Descending Northern Cal TRACON
09:04PM 37.8167 -121.7000 307° West 296 341 7,700 -392 Descending Northern Cal TRACON
09:06PM 37.8606 -121.8294 293° West 285 328 7,000 -429 Descending Oakland Center
09:07PM 37.8922 -121.9208 294° West 284 327 6,600 -836 Descending Oakland Center
09:08PM 37.9169 -122.0139 289° West 282 325 5,300 -836 Descending Oakland Center
09:09PM 37.9400 -122.1192 286° West 264 304 4,900 -195 Descending Oakland Center
09:10PM 37.9628 -122.2094 288° West 267 307 4,900 -295 Level Oakland Center
09:11PM 37.9703 -122.2964 276° West 251 289 4,300 -492 Descending Oakland Center
09:12PM 37.9522 -122.3783 254° West 243 280 3,900 -488 Descending Oakland Center
09:13PM 37.9128 -122.4225 221° Southwest 214 246 3,300 -537 Descending Oakland Center
09:14PM 37.8594 -122.4322 188° South 195 224 2,800 -304 Descending Oakland Center
09:14PM 37.8500 -122.4167 128° Southeast 187 215 2,900 -779 Climbing Northern Cal TRACON
09:15PM 37.8000 -122.3833 152° Southeast 180 207 1,800 -692 Descending Northern Cal TRACON
09:16PM 37.7900 -122.3469 109° East 179 206 1,700 -400 Descending Oakland Center
09:17PM 37.7614 -122.3033 130° Southeast 172 198 1,100 -537 Descending Oakland Center
09:18PM 37.7392 -122.2633 125° Southeast 156 180 600 -484 Descending Oakland Center

Login

Don't have an account? Register now (free) for customized features, flight alerts, and more!